Regional Weather Roundup
Issued by NWS Newport/Morehead, NC

Current Version | Previous Version | Text Only | Print | Product List | Glossary On
Versions: 1 2 3 4 5 6 7 8 9 10 11 12 13 14 15 16 17 18 19 20 21 22 23 24 25 26 27 28 29 30 31 32 33 34 35 36 37 38 39 40 41 42 43 44 45 46 47 48 49 50
000 ASUS42 KMHX 282225 RWRMHX WEATHER ROUNDUP FOR EASTERN NORTH CAROLINA NATIONAL WEATHER SERVICE NEWPORT/MOREHEAD CITY NC 600 PM EDT THU JUL 28 2016 NOTE: "FAIR" INDICATES FEW OR NO CLOUDS BELOW 12,000 FEET WITH NO SIGNIFICANT WEATHER AND/OR OBSTRUCTIONS TO VISIBILITY NCZ015>017-031-032-045>047-102-103-282300- NORTH COAST CITY SKY/WX TMP DP RH WIND PRES REMARKS EDENTON SUNNY 96 72 46 SW12 29.83R HX 105 ELIZABETH CITY CLOUDY 94 77 57 S14 29.81R HX 108 KITTY HAWK CLEAR 96 79 57 S9 29.82S HX 115 MANTEO N/A 93 82 72 SW16 29.84S HX 116 $$ NCZ045>047-081-094-103-104-282300- CENTRAL COAST CITY SKY/WX TMP DP RH WIND PRES REMARKS FRISCO SUNNY 87 80 79 SW9 29.86F HX 103 $$ NCZ095-097-098-100-101-282300- SOUTHERN COAST CITY SKY/WX TMP DP RH WIND PRES REMARKS BEAUFORT SUNNY 87 79 76 SW18 29.88S HX 101 CEDAR ISLAND NOT AVBL JACKSONVILLE SUNNY 95 69 42 SW14G20 29.86S HX 100 PINEY ISLAND NOT AVBL WILMINGTON SUNNY 93 73 52 SW18 29.88S HX 102 $$ NCZ011>013-027>030-043-044-078>080-089-090>093-098-282300- COASTAL PLAIN CITY SKY/WX TMP DP RH WIND PRES REMARKS AHOSKIE SUNNY 90 79 70 CALM 29.81S HX 106 CLINTON SUNNY 96 73 47 SW9G20 29.86S HX 104 ELIZABETHTOWN SUNNY 95 69 41 SW10 29.88S HX 100 GOLDSBORO NOT AVBL GREENVILLE SUNNY 97 72 44 SW12 29.85S HX 105 HAVELOCK MOSUNNY 90 74 59 S16G23 29.87S KENANSVILLE NOT AVBL KINSTON SUNNY 97 68 38 SW15 29.84F HX 101 NEW BERN SUNNY 93 76 57 S9 29.86S HX 105 RICHLANDS SUNNY 97 73 45 SW10G21 29.86F HX 107 ROCKY MOUNT SUNNY 95 74 50 SW12 29.82F HX 105 WASHINGTON SUNNY 95 73 49 SW10G16 29.82F HX 104 WHITEVILLE SUNNY 95 71 45 SW6 29.88S HX 101 $$ AMZ130-135-150-152-154-156-158-170-250-252-270-ANZ085-086-088-633-658-670-282300- MARINE OBSERVATIONS STATION/POSITION TIME TEMP WIND PRES WAVE SWELL AIR SEA DIR/SP/G HT/PER HT/PER (UTC) (F) (DEG/KT/KT) (MB) (FT/S) (FT/S) CHESAPEAKE LIGHT NOT AVBL 64 E VA BEACH 2150 84 83 170/ 10/ 12 1010.2 2/ 5 2/ 5 DUCK 2100 93 72 200/ 11/ 14 1009.2 2 E DUCK 2211 80 N/A 1/ 8 OREGON INLET 2100 83 86 190/ 11/ 13 1010.8 13E OREGON INLT 2200 84 N/A 2/ 8 2/ 8 HATTERAS CG 2100 86 84 200/ 9/ 12 1011.2 DIAMOND BUOY 2150 87 86 230/ 16/ 17 1011.5 3/ 5 2/ 6 CAPE LOOKOUT 2200 87 220/ 10/ 14 1011.5 BEAUFORT LAB 2100 87 83 210/ 12/ 19 1011.3 30 SE NEW RVR IN 2208 87 85 220/ 17/ 21 1012.1 30 SE NEW RVR IN 2125 85 N/A 4/ 6 27 SE WRIGHTSVLE 2208 86 85 210/ 16/ 21 1012.6 5 SE WRIGHTSVLE 2108 84 81 220/ 16/ 19 1013.0 225 S CAPE HAT 2150 84 85 230/ 12/ 12 1015.1 3/ 6 3/ 6 41 SE CHARLESTON 2150 87 86 210/ 16/ 17 1013.6 3/ 5 2/ 8 $$

USA.gov is the U.S. government's official web portal to all federal, state and local government web resources and services.